Saint John's, Antigua

12:28 AM AST on February 24, 2017 (GMT -0400)
V C Bird International

Weather History for TAPA - January, 2014

Change the Weather History Date:

Wednesday, January 1, 2014

  Actual Average Record
Temperature  
Mean Temperature 78 °F -  
Max Temperature 81 °F 81 °F 86 °F (1998)
Min Temperature 75 °F 72 °F 69 °F (2009)
Cooling Degree Days 13    
Growing Degree Days 28 (Base 50)    
Moisture  
Dew Point 70 °F    
Average Humidity 75    
Maximum Humidity 83    
Minimum Humidity 61    
Precipitation  
Precipitation 0.04 in - - ()
Sea Level Pressure  
Sea Level Pressure 30.03 in    
Wind  
Wind Speed 12 mph ()    
Max Wind Speed 15 mph    
Max Gust Speed -    
Visibility 8.7 miles    
Events Rain    
Averages and records for this station are not official NWS values.
T = Trace of Precipitation, MM = Missing Value Source: Averaged Metar Reports

Daily Weather History Graph

Daily Weather History Graph

Search for Another Location

Airport or City:

Trip Planner

Search our weather history database for the weather conditions in past years. The results will help you decide how hot, cold, wet, or windy it might be!

Date:

Astronomy

Jan. 01, 2014 Rise Set
Actual Time 6:36 AM AST 5:44 PM AST
Civil Twilight 6:13 AM AST 6:08 PM AST
Nautical Twilight 5:46 AM AST 6:35 PM AST
Astronomical Twilight 5:19 AM AST 7:01 PM AST
Moon 6:31 AM AST (1/1) 6:13 PM AST (1/1)
Length of Visible Light 11h 54m
Length of Day
11h 07m
New Moon, 0% of the Moon is Illuminated
Jan 1
New Moon
Jan 7
First Quarter
Jan 16
Full
Jan 24
Last Quarter
Jan 30
New

Hourly Weather History & Observations

Time (AST) Temp. Heat Index Dew Point Humidity Pressure Visibility Wind Dir Wind Speed Gust Speed Precip Events Conditions
12:00 AM 77.0 °F - 69.8 °F 78% 30.04 in 6.2 mi ENE 15.0 mph - N/A   Scattered Clouds
1:00 AM 77.0 °F - 69.8 °F 78% 30.04 in 6.2 mi ENE 13.8 mph - N/A   Scattered Clouds
2:00 AM 78 °F - 70 °F 71% 30.03 in 16 mi ENE 15.0 mph - -   Haze
2:00 AM 77.0 °F - 69.8 °F 78% 30.01 in 6.2 mi ENE 15.0 mph - N/A   Mostly Cloudy
3:00 AM 77.0 °F - 69.8 °F 78% 30.01 in 6.2 mi East 13.8 mph - N/A   Mostly Cloudy
4:00 AM 77.0 °F - 69.8 °F 78% 30.01 in 6.2 mi East 11.5 mph - N/A   Mostly Cloudy
5:00 AM 76 °F - 70 °F 76% 30.02 in 16 mi ENE 13.8 mph - - Rain Light Rain Showers
5:00 AM 75.2 °F - 69.8 °F 83% 30.01 in 6.2 mi ENE 13.8 mph - N/A   Mostly Cloudy
6:00 AM 77.0 °F - 69.8 °F 78% 30.01 in 6.2 mi ENE 13.8 mph - N/A   Scattered Clouds
7:00 AM 77.0 °F - 69.8 °F 78% 30.04 in 6.2 mi ENE 12.7 mph - N/A   Scattered Clouds
8:00 AM 78 °F - 69 °F 67% 30.06 in 16 mi ENE 11.5 mph - -   Partly Cloudy
8:00 AM 78.8 °F - 69.8 °F 74% 30.06 in 6.2 mi ENE 11.5 mph - N/A   Scattered Clouds
9:00 AM 77.0 °F - 69.8 °F 78% 30.06 in 6.2 mi East 11.5 mph - N/A   Scattered Clouds
10:00 AM 78.8 °F - 66.2 °F 65% 30.06 in 6.2 mi ENE 15.0 mph - N/A   Scattered Clouds
11:00 AM 79 °F - 69 °F 65% 30.08 in 16 mi ENE 13.8 mph - - Rain Light Rain Showers
11:00 AM 78.8 °F - 69.8 °F 74% 30.06 in 6.2 mi ENE 13.8 mph - N/A   Mostly Cloudy
12:00 PM 77.0 °F - 69.8 °F 78% 30.06 in 6.2 mi East 11.5 mph - N/A Rain Light Rain Showers
1:00 PM 80.6 °F 84.6 °F 71.6 °F 74% 30.04 in 6.2 mi East 12.7 mph - N/A   Partly Cloudy
2:00 PM 81 °F - 70 °F 61% 30.01 in 16 mi East 11.5 mph - -   Haze
2:00 PM 80.6 °F 83.9 °F 69.8 °F 70% 30.01 in 6.2 mi East 11.5 mph - N/A   Partly Cloudy
3:00 PM 80.6 °F 83.9 °F 69.8 °F 70% 29.98 in 6.2 mi ENE 12.7 mph - N/A   Partly Cloudy
4:00 PM 77.0 °F - 71.6 °F 83% 29.98 in 6.2 mi East 9.2 mph - N/A Rain Light Rain Showers
5:00 PM 76 °F - 68 °F 70% 30.01 in 16 mi East 9.2 mph - - Rain Light Rain Showers
5:00 PM 75.2 °F - 68.0 °F 78% 30.01 in 6.2 mi East 9.2 mph - N/A   Partly Cloudy
6:00 PM 77.0 °F - 69.8 °F 78% 30.01 in 6.2 mi East 11.5 mph - N/A   Partly Cloudy
7:00 PM 77.0 °F - 69.8 °F 78% 30.01 in 6.2 mi ENE 13.8 mph - N/A   Partly Cloudy
8:00 PM 77 °F - 69 °F 70% 30.02 in 16 mi ENE 15.0 mph - -   Haze
8:00 PM 77.0 °F - 69.8 °F 78% 30.01 in 6.2 mi ENE 15.0 mph - N/A   Scattered Clouds
9:00 PM 77.0 °F - 69.8 °F 78% 30.01 in 6.2 mi ENE 13.8 mph - N/A   Scattered Clouds
11:00 PM 77 °F - 69 °F 71% 30.06 in 16 mi ENE 15.0 mph - - Rain Light Rain Showers
11:00 PM 77.0 °F - 69.8 °F 78% 30.04 in 6.2 mi ENE 15.0 mph - N/A   Mostly Cloudy